Regional Weather Roundup
Issued by NWS

Home | Current Version | Previous Version | Text Only | Print | Product List | Glossary On
Versions: 1 2 3 4 5 6 7 8 9 10 11 12 13 14 15 16 17 18 19 20 21 22 23 24 25 26 27 28 29 30 31 32 33 34 35 36 37 38 39 40 41 42 43 44 45 46 47 48 49 50
000
ASUS44 KOUN 190810
RWROK

WEATHER ROUNDUP FOR OKLAHOMA
NATIONAL WEATHER SERVICE NORMAN OK
300 AM CDT SAT AUG 19 2017

NOTE: "FAIR" INDICATES FEW OR NO CLOUDS BELOW 12,000 FEET WITH NO
      SIGNIFICANT WEATHER AND/OR OBSTRUCTIONS TO VISIBILITY.

OKZ001>007-009>012-014-015-017-190900-
NORTHWEST OKLAHOMA AND THE PANHANDLE

CITY           SKY/WX    TMP DP  RH WIND       PRES   REMARKS
GAGE           CLEAR     74  68  81 S10       30.00F
GUYMON         CLEAR     69  67  93 W3        30.04F
ENID/WOODRING  CLEAR     72  72 100 CALM      29.95S
$$

OKZ016-021>023-033>039-044-045-190900-
SOUTHWEST OKLAHOMA

CITY           SKY/WX    TMP DP  RH WIND       PRES   REMARKS
LAWTON/REGL    CLEAR     77  75  93 CALM      29.99S
LAWTON/FT SILL CLEAR     76  76 100 S6        29.98S FOG
FREDERICK      CLEAR     76  74  93 S6        29.96S
CLINTON        CLEAR     77  70  79 S13       30.01F
HOBART         CLEAR     77  73  87 S9        30.00S
ALTUS AFB      PTCLDY    74  74 100 N3        29.98F
$$

OKZ018>020-024>031-190900-
CENTRAL OKLAHOMA

CITY           SKY/WX    TMP DP  RH WIND       PRES   REMARKS
OKLAHOMA CITY  CLEAR     73  71  93 S6        29.99S
OKC/WILEY POST CLEAR     77  72  84 S8        29.98F
OKC/TINKER AFB CLEAR     75  72  91 S10       29.99S
STILLWATER     CLEAR     76  72  87 SW3       29.96S
GUTHRIE        CLEAR     75  72  90 S6        29.97S
$$

OKZ008-013-054>072-190900-
NORTHEAST OKLAHOMA

CITY           SKY/WX    TMP DP  RH WIND       PRES   REMARKS
TULSA          CLEAR     79  74  84 S7        29.93F
TULSA/JONES    CLEAR     75  73  93 CALM      29.95S
PONCA CITY     CLEAR     77  70  79 S3        29.94F
BARTLESVILLE   CLEAR     70  68  93 CALM      29.95F
MUSKOGEE       CLEAR     76  74  93 S3        29.98R
$$

OKZ032-040>043-046>053-073>077-190900-
SOUTH CENTRAL/SOUTHEAST OKLAHOMA

CITY           SKY/WX    TMP DP  RH WIND       PRES   REMARKS
ARDMORE/DWNTWN CLEAR     72  70  94 CALM      29.99S
MCALESTER      CLEAR     75  73  93 SW3       29.99S
$$




USA.gov is the U.S. government's official web portal to all federal, state and local government web resources and services.